Change the Weather History Date:

Thursday, February 14, 2013

  Actual Average Record
Temperature  
Mean Temperature 52 °F 54 °F  
Max Temperature 57 °F 63 °F 84 °F (1962)
Min Temperature 47 °F 46 °F 25 °F (1958)
Degree Days  
Heating Degree Days 13 11  
Month to date heating degree days 108 166  
Since 1 July heating degree days 783 1117  
Cooling Degree Days 0 0  
Month to date cooling degree days 6 0  
Year to date cooling degree days 18 3  
Growing Degree Days 2 (Base 50)    
Moisture  
Dew Point 43 °F    
Average Humidity 70    
Maximum Humidity 80    
Minimum Humidity 59    
Precipitation  
Precipitation T in 0.12 in 1.31 in (1965)
Month to date precipitation 0.13 1.65  
Year to date precipitation 0.47 4.87  
Snow  
Snow 0.00 in - 0.00 in ()
Month to date snowfall 0.0  
Since 1 July snowfall 0.0  
Snow Depth 0.00 in    
Sea Level Pressure  
Sea Level Pressure 30.03 in    
Wind  
Wind Speed 5 mph (NW)    
Max Wind Speed 13 mph    
Max Gust Speed 16 mph    
Visibility 10 miles    
Events Rain    
T = Trace of Precipitation, MM = Missing Value Source: NWS Daily Summary

Daily Weather History Graph

Daily Weather History Graph

Search for Another Location

Airport or City:

Trip Planner

Search our weather history database for the weather conditions in past years. The results will help you decide how hot, cold, wet, or windy it might be!

Date:

Astronomy

Feb. 14, 2013 Rise Set
Actual Time 7:07 AM EST 6:12 PM EST
Civil Twilight 6:42 AM EST 6:37 PM EST
Nautical Twilight 6:14 AM EST 7:05 PM EST
Astronomical Twilight 5:46 AM EST 7:33 PM EST
Moon 9:30 AM EST (2/14) 10:49 PM EST (2/14)
Length of Visible Light 11h 54m
Length of Day
11h 04m
Waxing Crescent, 21% of the Moon is Illuminated
Feb 14
Waxing Crescent
Feb 17
First Quarter
Feb 25
Full
Mar 4
Last Quarter
Mar 11
New

Hourly Weather History & Observations

Time (EST) Temp. Dew Point Humidity Pressure Visibility Wind Dir Wind Speed Gust Speed Precip Events Conditions
12:53 AM 55.9 °F 46.9 °F 72% 29.95 in 10.0 mi NW 4.6 mph - N/A   Mostly Cloudy
1:53 AM 54.0 °F 42.1 °F 64% 29.94 in 10.0 mi NW 6.9 mph 16.1 mph N/A   Scattered Clouds
2:53 AM 53.1 °F 44.1 °F 71% 29.98 in 10.0 mi WNW 8.1 mph - 0.00 in Rain Light Rain
3:53 AM 53.1 °F 44.1 °F 71% 29.97 in 10.0 mi NW 6.9 mph - 0.00 in   Overcast
4:53 AM 52.0 °F 45.0 °F 77% 29.99 in 10.0 mi NW 4.6 mph - 0.00 in Rain Light Rain
5:53 AM 51.1 °F 45.0 °F 80% 29.99 in 10.0 mi WNW 5.8 mph - 0.00 in   Partly Cloudy
6:53 AM 50.0 °F 44.1 °F 80% 30.01 in 10.0 mi NW 6.9 mph - N/A   Partly Cloudy
7:53 AM 50.0 °F 44.1 °F 80% 30.04 in 10.0 mi NW 5.8 mph - N/A   Clear
8:17 AM 51.8 °F 44.6 °F 76% 30.03 in 10.0 mi NNW 5.8 mph - N/A   Mostly Cloudy
8:33 AM 50.0 °F 44.6 °F 82% 30.04 in 10.0 mi NW 5.8 mph - N/A   Scattered Clouds
8:53 AM 51.1 °F 44.1 °F 77% 30.06 in 10.0 mi NNW 6.9 mph - N/A   Partly Cloudy
9:53 AM 51.1 °F 42.1 °F 71% 30.07 in 10.0 mi NNW 9.2 mph - N/A   Clear
10:53 AM 52.0 °F 42.1 °F 69% 30.07 in 10.0 mi North 4.6 mph - N/A   Clear
11:53 AM 52.0 °F 42.1 °F 69% 30.07 in 10.0 mi NNE 5.8 mph - N/A   Clear
12:53 PM 52.0 °F 42.1 °F 69% 30.05 in 10.0 mi West 4.6 mph - N/A   Clear
1:53 PM 53.1 °F 39.9 °F 61% 30.02 in 10.0 mi NW 4.6 mph - N/A   Clear
2:53 PM 53.1 °F 41.0 °F 64% 30.04 in 10.0 mi WNW 3.5 mph - N/A   Clear
3:53 PM 53.1 °F 41.0 °F 64% 30.03 in 10.0 mi NNW 6.9 mph - N/A   Clear
4:53 PM 52.0 °F 41.0 °F 66% 30.03 in 10.0 mi NNW 3.5 mph - N/A   Clear
5:53 PM 52.0 °F 41.0 °F 66% 30.05 in 10.0 mi WNW 4.6 mph - N/A   Clear
6:53 PM 50.0 °F 41.0 °F 71% 30.08 in 10.0 mi WNW 4.6 mph - N/A   Partly Cloudy
7:53 PM 50.0 °F 42.1 °F 74% 30.06 in 10.0 mi NNW 6.9 mph - N/A   Clear
8:53 PM 48.9 °F 42.1 °F 77% 30.07 in 10.0 mi Calm Calm - N/A   Clear
9:53 PM 48.0 °F 42.1 °F 80% 30.09 in 10.0 mi WNW 3.5 mph - N/A   Clear
10:53 PM 48.0 °F 42.1 °F 80% 30.07 in 10.0 mi NNW 5.8 mph - N/A   Clear
11:53 PM 46.9 °F 41.0 °F 80% 30.08 in 10.0 mi WNW 3.5 mph - N/A   Clear